Location: Proctor
(47.8934°N, 114.3048°W)
Time: 11:43:31
(UTC+00:00)

Transit 4A - Pass Details

Date: 26 June 2024
Orbit: 870 x 973 km, 66.8° (Epoch: 13 July)

Event Time Altitude Azimuth Distance (km) Brightness Sun altitude
Rises 05:27:58 0° 215° (SW) 3,459 10.6 -12.8°
Reaches altitude 10° 05:30:27 10° 217° (SW) 2,517 9.9 -13.0°
Maximum altitude 05:36:16 82° 305° (NW) 885 7.9 -13.5°
Drops below altitude 10° 05:42:07 10° 33° (NNE) 2,532 10.6 -14.0°
Sets 05:44:37 0° 35° (NE) 3,481 11.3 -14.2°
